Weather History for KBGM - July, 2013

Change the Weather History Date:

Tuesday, July 16, 2013

  Actual Average Record
Temperature  
Mean Temperature 77 °F 69 °F  
Max Temperature 87 °F 78 °F 98 °F (1988)
Min Temperature 67 °F 60 °F 49 °F (2015)
Degree Days  
Heating Degree Days 0 1  
Month to date heating degree days 0 16  
Since 1 June heating degree days 87 107  
Since 1 July heating degree days 0 16  
Cooling Degree Days 12 5  
Month to date cooling degree days 147 71  
Year to date cooling degree days 273 168  
Since 1 June cooling degree days 230 145  
Growing Degree Days 26 (Base 50)    
Moisture  
Dew Point 63 °F    
Average Humidity 65    
Maximum Humidity 81    
Minimum Humidity 48    
Precipitation  
Precipitation 0.00 in 0.11 in 0.50 in (1988)
Month to date precipitation 4.29 1.93  
Year to date precipitation 22.69 20.99  
Snow  
Snow 0.00 in 0.00 in 0.00 in (2002)
Month to date snowfall 0.0 0.0  
Since 1 June snowfall 0.0 0.0  
Since 1 July snowfall 0.0 0.0  
Snow Depth 0.00 in    
Sea Level Pressure  
Sea Level Pressure 30.26 in    
Wind  
Wind Speed 7 mph (NNW)    
Max Wind Speed 14 mph    
Max Gust Speed 18 mph    
Visibility 10 miles    
Events      
T = Trace of Precipitation, MM = Missing Value Source: NWS Daily Summary

Daily Weather History Graph

Daily Weather History Graph

Search for Another Location

Airport or City:

Trip Planner

Search our weather history database for the weather conditions in past years. The results will help you decide how hot, cold, wet, or windy it might be!

Date:

Astronomy

Jul. 16, 2013 Rise Set
Actual Time 5:41 AM EDT 8:37 PM EDT
Civil Twilight 5:08 AM EDT 9:10 PM EDT
Nautical Twilight 4:26 AM EDT 9:53 PM EDT
Astronomical Twilight 3:36 AM EDT 10:42 PM EDT
Moon 2:13 PM EDT (7/16) 12:13 AM EDT (7/16)
Length of Visible Light 16h 02m
Length of Day
14h 55m
First Quarter, 56% of the Moon is Illuminated
Jul 16
First Quarter
Jul 22
Full
Jul 29
Last Quarter
Aug 6
New
Aug 14
First Quarter

Hourly Weather History & Observations

Time (EDT) Temp. Heat Index Dew Point Humidity Pressure Visibility Wind Dir Wind Speed Gust Speed Precip Events Conditions
12:53 AM 72.0 °F - 60.1 °F 66% 30.26 in 10.0 mi NNW 4.6 mph - N/A   Clear
1:53 AM 70.0 °F - 60.1 °F 71% 30.25 in 10.0 mi North 5.8 mph - N/A   Clear
2:53 AM 71.1 °F - 60.1 °F 68% 30.25 in 10.0 mi NNW 4.6 mph - N/A   Clear
3:53 AM 72.0 °F - 59.0 °F 64% 30.25 in 10.0 mi NNW 5.8 mph - N/A   Clear
4:53 AM 66.9 °F - 60.1 °F 79% 30.25 in 10.0 mi WNW 4.6 mph - N/A   Clear
5:53 AM 68.0 °F - 60.1 °F 76% 30.27 in 10.0 mi NW 5.8 mph - N/A   Clear
6:53 AM 69.1 °F - 61.0 °F 75% 30.28 in 10.0 mi West 6.9 mph - N/A   Clear
7:53 AM 71.1 °F - 62.1 °F 73% 30.29 in 10.0 mi WNW 6.9 mph - N/A   Clear
8:53 AM 75.0 °F - 64.0 °F 69% 30.30 in 10.0 mi NNW 5.8 mph - N/A   Clear
9:53 AM 79.0 °F - 66.0 °F 64% 30.29 in 10.0 mi WNW 5.8 mph - N/A   Clear
10:53 AM 81.0 °F 83.0 °F 66.0 °F 60% 30.29 in 10.0 mi NNW 6.9 mph - N/A   Clear
11:53 AM 82.9 °F 85.0 °F 66.0 °F 56% 30.28 in 10.0 mi North 9.2 mph - N/A   Partly Cloudy
12:53 PM 84.9 °F 86.6 °F 64.9 °F 51% 30.27 in 10.0 mi North 9.2 mph - N/A   Partly Cloudy
1:53 PM 84.9 °F 86.1 °F 64.0 °F 49% 30.26 in 10.0 mi NW 9.2 mph - N/A   Partly Cloudy
2:53 PM 86.0 °F 87.3 °F 64.0 °F 48% 30.25 in 10.0 mi NNW 10.4 mph - N/A   Partly Cloudy
3:53 PM 84.0 °F 85.4 °F 64.0 °F 51% 30.24 in 10.0 mi North 11.5 mph - N/A   Partly Cloudy
4:53 PM 86.0 °F 87.3 °F 64.0 °F 48% 30.23 in 10.0 mi North 10.4 mph - N/A   Partly Cloudy
5:53 PM 84.9 °F 86.6 °F 64.9 °F 51% 30.22 in 10.0 mi North 11.5 mph - N/A   Partly Cloudy
6:53 PM 82.9 °F 84.6 °F 64.9 °F 54% 30.23 in 10.0 mi NNW 6.9 mph - N/A   Clear
7:53 PM 81.0 °F 83.0 °F 66.0 °F 60% 30.23 in 10.0 mi North 5.8 mph - N/A   Clear
8:53 PM 79.0 °F - 64.9 °F 62% 30.24 in 10.0 mi NNW 5.8 mph - N/A   Clear
9:53 PM 77.0 °F - 66.0 °F 69% 30.25 in 10.0 mi North 4.6 mph - N/A   Clear
10:53 PM 75.0 °F - 64.9 °F 71% 30.25 in 10.0 mi North 5.8 mph - N/A   Clear
11:53 PM 75.0 °F - 64.0 °F 69% 30.25 in 10.0 mi North 4.6 mph - N/A   Clear